TimeCST,TemperatureF,Dew PointF,Humidity,Sea Level PressureIn,VisibilityMPH,Wind Direction,Wind SpeedMPH,Gust SpeedMPH,PrecipitationIn,Events,Conditions,WindDirDegrees,DateUTC
12:53 AM,5.0,1.0,84,30.26,10.0,South,4.6,-,N/A,,Clear,170,2012-12-22 06:53:00
1:53 AM,8.1,3.0,80,30.25,10.0,SSE,4.6,-,N/A,,Clear,150,2012-12-22 07:53:00
2:53 AM,8.1,3.9,83,30.23,10.0,South,3.5,-,N/A,,Clear,190,2012-12-22 08:53:00
3:53 AM,7.0,3.0,84,30.20,10.0,South,3.5,-,N/A,,Clear,170,2012-12-22 09:53:00
4:53 AM,7.0,3.0,84,30.18,10.0,SE,3.5,-,N/A,,Clear,140,2012-12-22 10:53:00
5:53 AM,6.8,1.4,79,30.10,10.0,SSE,8.1,-,N/A,,Clear,160,2012-12-22 11:53:00
6:53 AM,9.0,3.9,80,30.14,10.0,South,6.9,-,N/A,,Clear,170,2012-12-22 12:53:00
7:53 AM,12.0,6.1,77,30.11,10.0,SSE,10.4,-,N/A,,Clear,160,2012-12-22 13:53:00
8:53 AM,14.0,7.0,74,30.11,10.0,SSE,9.2,-,N/A,,Clear,160,2012-12-22 14:53:00
9:53 AM,16.0,9.0,74,30.10,10.0,South,11.5,-,N/A,,Clear,170,2012-12-22 15:53:00
10:53 AM,19.9,10.9,68,30.09,10.0,South,11.5,-,N/A,,Clear,170,2012-12-22 16:53:00
11:53 AM,21.9,12.9,68,30.06,10.0,SSE,5.8,-,N/A,,Clear,150,2012-12-22 17:53:00
12:53 PM,24.1,15.1,69,30.02,10.0,South,9.2,-,N/A,,Clear,170,2012-12-22 18:53:00
1:53 PM,27.0,16.0,63,29.99,10.0,South,11.5,-,N/A,,Clear,180,2012-12-22 19:53:00
2:53 PM,27.0,17.1,66,30.00,10.0,South,3.5,-,N/A,,Clear,190,2012-12-22 20:53:00
3:53 PM,27.0,17.1,66,29.98,10.0,SSE,3.5,-,N/A,,Clear,150,2012-12-22 21:53:00
4:53 PM,24.1,15.1,69,30.01,10.0,Calm,Calm,-,N/A,,Clear,0,2012-12-22 22:53:00
5:53 PM,17.1,12.0,81,30.02,10.0,Variable,3.5,-,N/A,,Clear,0,2012-12-22 23:53:00
6:53 PM,17.1,12.0,81,30.03,9.0,NNW,6.9,-,N/A,,Clear,340,2012-12-23 00:53:00
7:53 PM,15.1,10.9,84,30.03,7.0,NNW,9.2,-,N/A,,Clear,340,2012-12-23 01:53:00
8:53 PM,15.1,10.0,80,30.05,7.0,NNW,10.4,-,N/A,,Clear,330,2012-12-23 02:53:00
9:53 PM,14.0,10.0,84,30.05,6.0,NNW,11.5,-,N/A,,Clear,330,2012-12-23 03:53:00
10:53 PM,12.9,8.1,81,30.05,7.0,NNW,12.7,-,N/A,,Clear,330,2012-12-23 04:53:00
11:53 PM,12.9,7.0,77,30.06,7.0,NNW,12.7,-,N/A,,Clear,330,2012-12-23 05:53:00